﻿測定場所 (Monitoring sites),日付 (Measurement date),時間 (Measurement time),線量率 最大値 (max) μGy/h,線量率 最小値 (min) μGy/h,線量率 平均値 (average) μGy/h,
江戸川 (Edogawa),2020-08-23,23:01～24:00,0.0465,0.0416,0.0440,
江戸川 (Edogawa),2020-08-23,22:01～23:00,0.0470,0.0405,0.0437,
江戸川 (Edogawa),2020-08-23,21:01～22:00,0.0467,0.0398,0.0433,
江戸川 (Edogawa),2020-08-23,20:01～21:00,0.0463,0.0404,0.0435,
江戸川 (Edogawa),2020-08-23,19:01～20:00,0.0467,0.0415,0.0438,
江戸川 (Edogawa),2020-08-23,18:01～19:00,0.0467,0.0405,0.0436,
江戸川 (Edogawa),2020-08-23,17:01～18:00,0.0466,0.0395,0.0438,
江戸川 (Edogawa),2020-08-23,16:01～17:00,0.0471,0.0407,0.0438,
江戸川 (Edogawa),2020-08-23,15:01～16:00,0.0465,0.0412,0.0437,
江戸川 (Edogawa),2020-08-23,14:01～15:00,0.0477,0.0412,0.0439,
江戸川 (Edogawa),2020-08-23,13:01～14:00,0.0459,0.0401,0.0439,
江戸川 (Edogawa),2020-08-23,12:01～13:00,0.0482,0.0418,0.0447,
江戸川 (Edogawa),2020-08-23,11:01～12:00,0.0512,0.0440,0.0474,
江戸川 (Edogawa),2020-08-23,10:01～11:00,0.0559,0.0470,0.0517,
江戸川 (Edogawa),2020-08-23,09:01～10:00,0.0566,0.0461,0.0523,
江戸川 (Edogawa),2020-08-23,08:01～09:00,0.0510,0.0439,0.0469,
江戸川 (Edogawa),2020-08-23,07:01～08:00,0.0508,0.0443,0.0473,
江戸川 (Edogawa),2020-08-23,06:01～07:00,0.0510,0.0438,0.0474,
江戸川 (Edogawa),2020-08-23,05:01～06:00,0.0512,0.0444,0.0475,
江戸川 (Edogawa),2020-08-23,04:01～05:00,0.0498,0.0444,0.0471,
江戸川 (Edogawa),2020-08-23,03:01～04:00,0.0513,0.0450,0.0482,
江戸川 (Edogawa),2020-08-23,02:01～03:00,0.0586,0.0482,0.0523,
江戸川 (Edogawa),2020-08-23,01:01～02:00,0.0611,0.0509,0.0571,
江戸川 (Edogawa),2020-08-23,00:01～01:00,0.0571,0.0509,0.0540,
江戸川 (Edogawa),2020-08-22,23:01～24:00,0.0547,0.0457,0.0492,
江戸川 (Edogawa),2020-08-22,22:01～23:00,0.0508,0.0453,0.0477,
江戸川 (Edogawa),2020-08-22,21:01～22:00,0.0511,0.0449,0.0477,
江戸川 (Edogawa),2020-08-22,20:01～21:00,0.0507,0.0443,0.0477,
江戸川 (Edogawa),2020-08-22,19:01～20:00,0.0513,0.0443,0.0473,
江戸川 (Edogawa),2020-08-22,18:01～19:00,0.0505,0.0453,0.0478,
江戸川 (Edogawa),2020-08-22,17:01～18:00,0.0507,0.0447,0.0472,
江戸川 (Edogawa),2020-08-22,16:01～17:00,0.0508,0.0437,0.0473,
江戸川 (Edogawa),2020-08-22,15:01～16:00,0.0505,0.0447,0.0475,
江戸川 (Edogawa),2020-08-22,14:01～15:00,0.0517,0.0445,0.0477,
江戸川 (Edogawa),2020-08-22,13:01～14:00,0.0506,0.0443,0.0478,
江戸川 (Edogawa),2020-08-22,12:01～13:00,0.0514,0.0437,0.0478,
江戸川 (Edogawa),2020-08-22,11:01～12:00,0.0503,0.0453,0.0476,
江戸川 (Edogawa),2020-08-22,10:01～11:00,0.0517,0.0443,0.0476,
江戸川 (Edogawa),2020-08-22,09:01～10:00,0.0514,0.0445,0.0477,
江戸川 (Edogawa),2020-08-22,08:01～09:00,0.0512,0.0454,0.0481,
江戸川 (Edogawa),2020-08-22,07:01～08:00,0.0530,0.0445,0.0482,
江戸川 (Edogawa),2020-08-22,06:01～07:00,0.0508,0.0443,0.0474,
江戸川 (Edogawa),2020-08-22,05:01～06:00,0.0502,0.0439,0.0472,
江戸川 (Edogawa),2020-08-22,04:01～05:00,0.0499,0.0440,0.0474,
江戸川 (Edogawa),2020-08-22,03:01～04:00,0.0499,0.0429,0.0473,
江戸川 (Edogawa),2020-08-22,02:01～03:00,0.0506,0.0446,0.0473,
江戸川 (Edogawa),2020-08-22,01:01～02:00,0.0502,0.0449,0.0474,
江戸川 (Edogawa),2020-08-22,00:01～01:00,0.0514,0.0437,0.0475,
江戸川 (Edogawa),2020-08-21,23:01～24:00,0.0515,0.0440,0.0477,
江戸川 (Edogawa),2020-08-21,22:01～23:00,0.0508,0.0432,0.0477,
江戸川 (Edogawa),2020-08-21,21:01～22:00,0.0499,0.0423,0.0467,
江戸川 (Edogawa),2020-08-21,20:01～21:00,0.0512,0.0443,0.0477,
江戸川 (Edogawa),2020-08-21,19:01～20:00,0.0500,0.0427,0.0471,
江戸川 (Edogawa),2020-08-21,18:01～19:00,0.0512,0.0446,0.0473,
江戸川 (Edogawa),2020-08-21,17:01～18:00,0.0501,0.0438,0.0472,
江戸川 (Edogawa),2020-08-21,16:01～17:00,0.0514,0.0449,0.0474,
江戸川 (Edogawa),2020-08-21,15:01～16:00,0.0511,0.0437,0.0476,
江戸川 (Edogawa),2020-08-21,14:01～15:00,0.0511,0.0444,0.0475,
江戸川 (Edogawa),2020-08-21,13:01～14:00,0.0516,0.0444,0.0476,
江戸川 (Edogawa),2020-08-21,12:01～13:00,0.0504,0.0443,0.0475,
江戸川 (Edogawa),2020-08-21,11:01～12:00,0.0502,0.0437,0.0471,
江戸川 (Edogawa),2020-08-21,10:01～11:00,0.0497,0.0441,0.0472,
江戸川 (Edogawa),2020-08-21,09:01～10:00,0.0506,0.0445,0.0471,
江戸川 (Edogawa),2020-08-21,08:01～09:00,0.0506,0.0447,0.0475,
江戸川 (Edogawa),2020-08-21,07:01～08:00,0.0493,0.0445,0.0469,
江戸川 (Edogawa),2020-08-21,06:01～07:00,0.0501,0.0437,0.0476,
江戸川 (Edogawa),2020-08-21,05:01～06:00,0.0510,0.0439,0.0473,
江戸川 (Edogawa),2020-08-21,04:01～05:00,0.0502,0.0442,0.0474,
江戸川 (Edogawa),2020-08-21,03:01～04:00,0.0509,0.0441,0.0472,
江戸川 (Edogawa),2020-08-21,02:01～03:00,0.0512,0.0443,0.0473,
江戸川 (Edogawa),2020-08-21,01:01～02:00,0.0513,0.0424,0.0474,
江戸川 (Edogawa),2020-08-21,00:01～01:00,0.0516,0.0437,0.0471,
江戸川 (Edogawa),2020-08-20,23:01～24:00,0.0506,0.0447,0.0473,
江戸川 (Edogawa),2020-08-20,22:01～23:00,0.0514,0.0435,0.0474,
江戸川 (Edogawa),2020-08-20,21:01～22:00,0.0512,0.0436,0.0472,
江戸川 (Edogawa),2020-08-20,20:01～21:00,0.0508,0.0439,0.0469,
江戸川 (Edogawa),2020-08-20,19:01～20:00,0.0496,0.0444,0.0472,
江戸川 (Edogawa),2020-08-20,18:01～19:00,0.0512,0.0447,0.0476,
江戸川 (Edogawa),2020-08-20,17:01～18:00,0.0497,0.0442,0.0473,
江戸川 (Edogawa),2020-08-20,16:01～17:00,0.0495,0.0426,0.0471,
江戸川 (Edogawa),2020-08-20,15:01～16:00,0.0506,0.0426,0.0471,
江戸川 (Edogawa),2020-08-20,14:01～15:00,0.0505,0.0440,0.0473,
江戸川 (Edogawa),2020-08-20,13:01～14:00,0.0512,0.0449,0.0476,
江戸川 (Edogawa),2020-08-20,12:01～13:00,0.0503,0.0449,0.0475,
江戸川 (Edogawa),2020-08-20,11:01～12:00,0.0512,0.0440,0.0476,
江戸川 (Edogawa),2020-08-20,10:01～11:00,0.0520,0.0439,0.0476,
江戸川 (Edogawa),2020-08-20,09:01～10:00,0.0500,0.0453,0.0476,
江戸川 (Edogawa),2020-08-20,08:01～09:00,0.0499,0.0440,0.0473,
江戸川 (Edogawa),2020-08-20,07:01～08:00,0.0502,0.0441,0.0476,
江戸川 (Edogawa),2020-08-20,06:01～07:00,0.0498,0.0445,0.0470,
江戸川 (Edogawa),2020-08-20,05:01～06:00,0.0503,0.0432,0.0473,
江戸川 (Edogawa),2020-08-20,04:01～05:00,0.0503,0.0434,0.0469,
江戸川 (Edogawa),2020-08-20,03:01～04:00,0.0506,0.0436,0.0473,
江戸川 (Edogawa),2020-08-20,02:01～03:00,0.0515,0.0440,0.0472,
江戸川 (Edogawa),2020-08-20,01:01～02:00,0.0501,0.0443,0.0470,
江戸川 (Edogawa),2020-08-20,00:01～01:00,0.0511,0.0451,0.0477,
江戸川 (Edogawa),2020-08-19,23:01～24:00,0.0517,0.0445,0.0477,
江戸川 (Edogawa),2020-08-19,22:01～23:00,0.0504,0.0437,0.0474,
江戸川 (Edogawa),2020-08-19,21:01～22:00,0.0505,0.0449,0.0476,
江戸川 (Edogawa),2020-08-19,20:01～21:00,0.0521,0.0434,0.0473,
江戸川 (Edogawa),2020-08-19,19:01～20:00,0.0505,0.0435,0.0474,
江戸川 (Edogawa),2020-08-19,18:01～19:00,0.0499,0.0441,0.0474,
江戸川 (Edogawa),2020-08-19,17:01～18:00,0.0505,0.0442,0.0472,
江戸川 (Edogawa),2020-08-19,16:01～17:00,0.0509,0.0441,0.0470,
江戸川 (Edogawa),2020-08-19,15:01～16:00,0.0504,0.0444,0.0473,
江戸川 (Edogawa),2020-08-19,14:01～15:00,0.0509,0.0450,0.0475,
江戸川 (Edogawa),2020-08-19,13:01～14:00,0.0498,0.0441,0.0472,
江戸川 (Edogawa),2020-08-19,12:01～13:00,0.0519,0.0441,0.0476,
江戸川 (Edogawa),2020-08-19,11:01～12:00,0.0518,0.0433,0.0476,
江戸川 (Edogawa),2020-08-19,10:01～11:00,0.0505,0.0433,0.0472,
江戸川 (Edogawa),2020-08-19,09:01～10:00,0.0507,0.0444,0.0474,
江戸川 (Edogawa),2020-08-19,08:01～09:00,0.0526,0.0438,0.0476,
江戸川 (Edogawa),2020-08-19,07:01～08:00,0.0524,0.0441,0.0472,
江戸川 (Edogawa),2020-08-19,06:01～07:00,0.0507,0.0441,0.0475,
江戸川 (Edogawa),2020-08-19,05:01～06:00,0.0510,0.0444,0.0474,
江戸川 (Edogawa),2020-08-19,04:01～05:00,0.0507,0.0450,0.0475,
江戸川 (Edogawa),2020-08-19,03:01～04:00,0.0510,0.0446,0.0475,
江戸川 (Edogawa),2020-08-19,02:01～03:00,0.0504,0.0447,0.0473,
江戸川 (Edogawa),2020-08-19,01:01～02:00,0.0507,0.0446,0.0470,
江戸川 (Edogawa),2020-08-19,00:01～01:00,0.0514,0.0444,0.0476,
江戸川 (Edogawa),2020-08-18,23:01～24:00,0.0504,0.0444,0.0471,
江戸川 (Edogawa),2020-08-18,22:01～23:00,0.0508,0.0436,0.0473,
江戸川 (Edogawa),2020-08-18,21:01～22:00,0.0505,0.0440,0.0471,
江戸川 (Edogawa),2020-08-18,20:01～21:00,0.0500,0.0446,0.0473,
江戸川 (Edogawa),2020-08-18,19:01～20:00,0.0500,0.0445,0.0474,
江戸川 (Edogawa),2020-08-18,18:01～19:00,0.0496,0.0443,0.0470,
江戸川 (Edogawa),2020-08-18,17:01～18:00,0.0503,0.0446,0.0474,
江戸川 (Edogawa),2020-08-18,16:01～17:00,0.0510,0.0449,0.0473,
江戸川 (Edogawa),2020-08-18,15:01～16:00,0.0498,0.0446,0.0472,
江戸川 (Edogawa),2020-08-18,14:01～15:00,0.0513,0.0444,0.0475,
江戸川 (Edogawa),2020-08-18,13:01～14:00,0.0517,0.0440,0.0472,
江戸川 (Edogawa),2020-08-18,12:01～13:00,0.0506,0.0442,0.0472,
江戸川 (Edogawa),2020-08-18,11:01～12:00,0.0508,0.0444,0.0472,
江戸川 (Edogawa),2020-08-18,10:01～11:00,0.0508,0.0430,0.0474,
江戸川 (Edogawa),2020-08-18,09:01～10:00,0.0508,0.0428,0.0469,
江戸川 (Edogawa),2020-08-18,08:01～09:00,0.0503,0.0433,0.0473,
江戸川 (Edogawa),2020-08-18,07:01～08:00,0.0496,0.0446,0.0471,
江戸川 (Edogawa),2020-08-18,06:01～07:00,0.0520,0.0443,0.0476,
江戸川 (Edogawa),2020-08-18,05:01～06:00,0.0500,0.0436,0.0469,
江戸川 (Edogawa),2020-08-18,04:01～05:00,0.0505,0.0448,0.0474,
江戸川 (Edogawa),2020-08-18,03:01～04:00,0.0511,0.0444,0.0469,
江戸川 (Edogawa),2020-08-18,02:01～03:00,0.0502,0.0438,0.0470,
江戸川 (Edogawa),2020-08-18,01:01～02:00,0.0511,0.0450,0.0474,
江戸川 (Edogawa),2020-08-18,00:01～01:00,0.0505,0.0427,0.0471,
江戸川 (Edogawa),2020-08-17,23:01～24:00,0.0502,0.0444,0.0471,
江戸川 (Edogawa),2020-08-17,22:01～23:00,0.0509,0.0441,0.0471,
江戸川 (Edogawa),2020-08-17,21:01～22:00,0.0513,0.0434,0.0472,
江戸川 (Edogawa),2020-08-17,20:01～21:00,0.0520,0.0440,0.0473,
江戸川 (Edogawa),2020-08-17,19:01～20:00,0.0501,0.0433,0.0471,
江戸川 (Edogawa),2020-08-17,18:01～19:00,0.0524,0.0433,0.0468,
江戸川 (Edogawa),2020-08-17,17:01～18:00,0.0505,0.0437,0.0470,
江戸川 (Edogawa),2020-08-17,16:01～17:00,0.0504,0.0444,0.0469,
江戸川 (Edogawa),2020-08-17,15:01～16:00,0.0506,0.0437,0.0468,
江戸川 (Edogawa),2020-08-17,14:01～15:00,0.0512,0.0438,0.0473,
江戸川 (Edogawa),2020-08-17,13:01～14:00,0.0503,0.0431,0.0474,
江戸川 (Edogawa),2020-08-17,12:01～13:00,0.0510,0.0441,0.0471,
江戸川 (Edogawa),2020-08-17,11:01～12:00,0.0508,0.0436,0.0474,
江戸川 (Edogawa),2020-08-17,10:01～11:00,0.0505,0.0446,0.0474,
江戸川 (Edogawa),2020-08-17,09:01～10:00,0.0494,0.0439,0.0468,
江戸川 (Edogawa),2020-08-17,08:01～09:00,0.0502,0.0445,0.0472,
江戸川 (Edogawa),2020-08-17,07:01～08:00,0.0504,0.0443,0.0471,
江戸川 (Edogawa),2020-08-17,06:01～07:00,0.0500,0.0434,0.0470,
江戸川 (Edogawa),2020-08-17,05:01～06:00,0.0502,0.0434,0.0467,
江戸川 (Edogawa),2020-08-17,04:01～05:00,0.0506,0.0441,0.0469,
江戸川 (Edogawa),2020-08-17,03:01～04:00,0.0505,0.0444,0.0468,
江戸川 (Edogawa),2020-08-17,02:01～03:00,0.0501,0.0438,0.0472,
江戸川 (Edogawa),2020-08-17,01:01～02:00,0.0509,0.0440,0.0468,
江戸川 (Edogawa),2020-08-17,00:01～01:00,0.0509,0.0445,0.0472,
